Regional Weather Roundup
Issued by NWS

Home | Current Version | Previous Version | Text Only | Print | Product List | Glossary On
Versions: 1 2 3 4 5 6 7 8 9 10 11 12 13 14 15 16 17 18 19 20 21 22 23 24 25 26 27 28 29 30 31 32 33 34 35 36 37 38 39 40 41 42 43 44 45 46 47 48 49 50
000
ASUS43 KMPX 242201
RWRMN
WEATHER ROUNDUP FOR MINNESOTA
NATIONAL WEATHER SERVICE TWIN CITIES/CHANHASSEN MN
500 PM CDT SAT JUN 24 2017


NOTE: "FAIR" INDICATES FEW OR NO CLOUDS BELOW 12,000 FEET WITH NO
SIGNIFICANT WEATHER AND/OR OBSTRUCTIONS TO VISIBILITY. N/A MEANS
CURRENT SKY AND/OR WEATHER CONDITIONS ARE NOT AVAILABLE.

MNZ060>063-068>070-242300-
   Twin Cities Metro

CITY           SKY/WX    TMP DP  RH WIND       PRES   REMARKS
TWIN CITIES    PTSUNNY   65  45  48 W17G26    30.02S
ST PAUL        MOSUNNY   61  46  57 W16       30.02F
CRYSTAL        MOSUNNY   64  42  44 NW14      30.00F
BLAINE         PTSUNNY   64  45  48 W14G20    30.00F
LAKEVILLE      MOSUNNY   61  46  59 W16G24    30.03R
EDEN PRAIRIE   MOSUNNY   65  44  46 NW16G22   30.02S
SOUTH ST PAUL  SUNNY     63  44  50 W15       30.02S
LAKE ELMO      FAIR      61  48  63 W13       30.02F
$$
MNZ001>005-007-008-013>017-022>024-027-028-242300-
   Northwest Minnesota

CITY           SKY/WX    TMP DP  RH WIND       PRES   REMARKS
BEMIDJI        PTSUNNY   61  46  58 W15       30.00F
HALLOCK        RAIN      52  50  93 N18G25    30.07R
ROSEAU         CLOUDY    57  54  88 CALM      30.01R
WARROAD        CLOUDY    59  54  82 W6        30.00S
THIEF RVR FALL CLOUDY    54  52  94 NW18G24   30.04R
CROOKSTON      CLOUDY    54  48  82 N23G31    30.07R
FOSSTON        LGT RAIN  54  52  94 NW16G23   30.04R
DETROIT LAKES  LGT RAIN  55  52  88 NW16      30.06F
MOORHEAD       PTSUNNY   57  52  82 NW17G29   30.09R
PARK RAPIDS    CLOUDY    62  44  51 NW14      30.02R
MAHNOMEN       DRIZZLE   54  52  94 NW16G25   30.04S
$$
MNZ006-009>011-018-025>026-242300-
   North Central Minnesota

CITY           SKY/WX    TMP DP  RH WIND       PRES   REMARKS
BAUDETTE       CLOUDY    61  50  67 NW12      29.98S
FLAG ISLAND    CLOUDY    61  48  63 CALM      29.98S
INTL FALLS     CLOUDY    62  48  60 NW14      29.95R
WASKISH        CLOUDY    63  48  59 NW7       29.98F
BIG FORK       CLOUDY    61  46  59 W3        29.97R
LONGVILLE      MOSUNNY   63  45  51 NW9       29.99F
GRAND RAPIDS   PTSUNNY   60  46  59 NW8G18    29.99S
CRANE LAKE     CLOUDY    57  48  72 N6        29.96R
ORR            CLOUDY    61  45  55 NW6       29.93R
COOK           PTSUNNY   57  52  82 SW7       29.96R
WALKER         FAIR      61  46  57 NW16      30.00S
$$
MNZ012-019>021-037-242300-
   Northeast Minnesota

CITY           SKY/WX    TMP DP  RH WIND       PRES   REMARKS
DULUTH         PTSUNNY   61  45  55 NW12G22   29.95S
ELY            CLOUDY    61  43  51 NW14G21   29.93R
HIBBING        LGT RAIN  55  50  83 NW7       29.97R
EVELETH        CLOUDY    58  48  69 W5        29.97S
DULUTH HARBOR  CLOUDY    64  48  55 NW12      29.95S
TWO HARBORS    CLOUDY    63  52  67 W5        29.92S
SILVER BAY     CLOUDY    64  46  52 NW3       29.90S
GRAND MARAIS     N/A     49  49 100 W5        29.90R
G MARAIS ARPRT LGT RAIN  54  48  82 CALM      29.92R
$$
MNZ029>031-032-039>041-046>048-054>057-064-242300-
   West Central Minnesota

CITY           SKY/WX    TMP DP  RH WIND       PRES   REMARKS
FERGUS FALLS   CLOUDY    59  46  63 N15G22    30.06S
WHEATON        PTSUNNY   63  39  42 W20G26    30.10S
MORRIS         MOSUNNY   63  43  48 NW18      30.07S
ALEXANDRIA     CLOUDY    61  45  55 NW20      30.08R
ELBOW LAKE     CLOUDY    60  46  61 NW15G23   30.08S
WADENA         MOSUNNY   59  46  63 NW13G23   30.04S
GLENWOOD       MOSUNNY   61  46  59 NW20G29   30.07F
APPLETON       PTSUNNY   66  39  37 NW16      30.08S
BENSON         PTSUNNY   66  45  45 N16       30.09S
ORTONVILLE     CLOUDY    64  43  45 NW16G22   30.10R
MADISON        MOSUNNY   68  45  42 NW17G24   30.10S
WILLMAR        FAIR      64  46  52 NW14      30.09S
$$
MNZ033>034-036-042>043-049>051-058-059-242300-
   Central Minnesota

CITY           SKY/WX    TMP DP  RH WIND       PRES   REMARKS
ST CLOUD       CLOUDY    60  53  77 NW12      30.03R
SAUK CENTRE    FAIR      62  45  53 W15G22    30.05F
PAYNESVILLE    PTSUNNY   61  45  55 NW15G26   30.07R
AITKIN         PTSUNNY   64  46  52 W9        29.98R
PINE RIVER     MOSUNNY   57  46  67 W5        30.04S
BRAINERD       PTSUNNY   61  44  53 NW18G26   30.02R
STAPLES        PTSUNNY   63  46  55 W16       30.03S
LONG PRAIRIE   CLOUDY    61  45  55 SW15      30.05S
LITTLE FALLS   CLOUDY    61  41  48 NW13G18   30.03F
LITCHFIELD     SUNNY     63  46  55 NW14G25   30.06R
BUFFALO        PTSUNNY   64  44  47 W13G24    30.04S
MAPLE LAKE     PTSUNNY   62  48  61 NW13G22   30.05R
HUTCHINSON     CLOUDY    64  47  55 W17       30.07S
$$
MNZ037-044-045-052-053-242300-
   East Central Minnesota

CITY           SKY/WX    TMP DP  RH WIND       PRES   REMARKS
PRINCETON      MOSUNNY   66  46  48 W16G22    30.01F
MORA           MOSUNNY   64  43  45 NW10G17   30.00S
CAMBRIDGE      MOSUNNY   64  46  52 W15       29.99S
RUSH CITY      RAIN      63  45  51 W5        29.99S
MOOSE LAKE     PTSUNNY   61  46  59 NW6       29.96S
HINCKLEY       MOCLDY    61  46  59 NW6       29.98S
CLOQUET        MOSUNNY   61  46  59 W7        29.97S
MCGREGOR       CLOUDY    59  50  72 NW6       29.99S
$$
MNZ071>073-080-081-089-090-097-098-242300-
   Southwest Minnesota

CITY           SKY/WX    TMP DP  RH WIND       PRES   REMARKS
MONTEVIDEO     PTSUNNY   66  43  42 N14G23    30.09S
GRANITE FALLS  MOSUNNY   69  41  36 W20       30.10S
CANBY          PTSUNNY   67  41  38 NW20G28   30.12S
MARSHALL       PTSUNNY   65  41  41 NW22G28   30.10R
REDWOOD FALLS  PTSUNNY   66  41  40 NW13G22   30.07S
OLIVIA         PTSUNNY   63  43  48 NW17      30.07R
PIPESTONE      MOSUNNY   66  39  37 NW18G28   30.13S
WINDOM         MOSUNNY   64  37  36 NW17G24   30.10S
WORTHINGTON    PTSUNNY   66  42  41 NW20G26   30.12S
JACKSON        MOSUNNY   64  37  36 NW21G30   30.10S
TRACY          PTSUNNY   65  41  40 NW18G28   30.11S
SLAYTON        MOSUNNY   63  16  15 NW18G26   30.12S HAZE
$$
MNZ065>067-074>077-082>085-091>093-242300-
   South Central Minnesota

CITY           SKY/WX    TMP DP  RH WIND       PRES   REMARKS
MANKATO        PTSUNNY   64  44  48 NW17      30.06R
NEW ULM        MOSUNNY   66  41  39 NW18G25   30.06S
ST JAMES       MOSUNNY   66  39  37 W22G28    30.08S
FAIRMONT       MOSUNNY   65  41  41 NW21G30   30.08R
GLENCOE        PTSUNNY   59  51  73 NW15G21   30.06R
FARIBAULT      MOSUNNY   63  46  55 W15G22    30.04S
OWATONNA       MOSUNNY   64  46  52 NW17G28   30.04F
WASECA         MOSUNNY   64  43  45 NW22G31   30.06S
ALBERT LEA     MOSUNNY   66  46  48 NW13G22   30.04F
$$
MNZ078>079-086>088-094>096-242300-
   Southeast Minnesota

CITY           SKY/WX    TMP DP  RH WIND       PRES   REMARKS
ROCHESTER      LGT RAIN  51  49  92 N7        30.06R
RED WING       CLOUDY    63  39  42 NW8       30.00F
STANTON        MOSUNNY   63  47  56 W15G21    30.03S
DODGE CENTER   CLOUDY    55  48  76 NW6       30.05F
WINONA         CLOUDY    61  45  55 NW17G32   30.02R
AUSTIN         MOSUNNY   63  48  59 NW10      30.03F
PRESTON        LGT RAIN  56  49  77 W13       30.06R
$$
ABBREVIATIONS USED IN REMARKS
   TC - TEMPERATURES IN CELSIUS
  WCI - WIND CHILL INDEX
   HX - HEAT INDEX
  VSB - VISIBILITY
$$



USA.gov is the U.S. government's official web portal to all federal, state and local government web resources and services.